User: anonymous   Login
Location: Unspecified
(0.0000°N, 0.0000°E)
Time: 05:21:28
(UTC+01:00)
Language:

Cosmos 1315 Rocket - Orbit

View from above orbital plane
View from above orbital plane
View from above satellite
View from above satellite

Ground track
Ground track

The orbit data is extracted from the following two-line orbital elements,

1 12904U 81103B   14351.52010486  .00003046  00000-0  22075-3 0  6538
2 12904 081.1791 236.8457 0029226 183.1337 176.9706 15.03338179355589
Epoch (UTC): 17 December 2014 12:28:57
Eccentricity: 0.0029226
inclination: 81.1791°
perigee height: 536 km
apogee height: 577 km
right ascension of ascending node: 236.8457°
argument of perigee: 183.1337°
revolutions per day: 15.03338179
mean anomaly at epoch: 176.9706°
orbit number at epoch: 35558

The dashed part of the orbit path shows where the satellite is in the earth's shadow,  

DLR